Temp
73 73 73 73 74 75 74 74 74 74 74 75 75 76 76 76 76 74 74 75 75 74 75 75 75 75 74 74 74 73 72 72 69 72 72 76 75 75 75 77 79 76 73
74 73 73 74 74 74 74 74 74 73 73 74 75 75 75 77 77 77 75 76 75 74 74 74 75 79 74 73 73 72 71 71 69 68 69 75 73 73 74 77 81 82 78
69 71 73 73 73 73 73 73 74 74 73 74 74 74 74 75 75 75 75 75 75 75 76 78 77 74 73 72 72 71 71 73 70 69 69 72 77 75 76 75 75 74 81
69 69 71 73 73 74 74 74 74 74 74 74 74 73 74 75 74 74 74 74 74 75 75 79 76 77 74 73 73 71 71 71 69 68 68 69 70 72 71 71 70 71 72
68 69 69 71 72 73 73 74 74 74 73 73 74 74 74 73 72 70 71 72 71 72 73 73 72 71 71 72 73 71 71 70 69 68 68 67 68 69 69 70 69 70 71
69 68 68 69 70 72 73 73 73 73 73 73 73 71 71 69 64 66 69 71 73 71 70 71 69 68 69 68 69 70 71 70 68 68 68 67 68 69 70 70 69 68 67
67 68 67 68 68 67 70 72 72 72 72 71 70 68 64 63 63 64 68 71 71 70 69 70 68 68 68 70 68 68 67 67 68 68 67 67 68 69 69 68 68 68 68
66 65 66 66 65 66 67 68 68 69 69 67 64 62 62 63 61 62 66 70 69 69 67 65 63 63 63 69 69 68 67 66 66 69 65 66 66 67 68 70 69 69 69
63 64 64 64 64 64 65 66 68 67 66 63 62 61 60 59 59 61 67 67 65 64 65 64 62 63 61 65 67 66 65 64 67 67 66 64 64 65 65 68 66 65 65
61 61 62 63 62 63 64 64 64 63 62 61 60 60 59 58 58 57 65 62 60 59 61 61 61 61 59 61 64 63 63 62 63 66 68 67 67 67 66 65 65 63 63
60 59 59 60 61 63 64 62 61 60 59 59 58 57 57 55 55 56 57 64 64 63 62 61 61 58 56 56 59 61 60 59 62 62 64 66 67 68 68 65 64 64 62
57 57 57 58 61 64 63 62 60 59 58 58 58 57 57 56 53 54 55 57 60 58 58 59 60 55 54 56 59 58 59 61 61 60 61 60 60 61 63 62 63 62 62
56 56 56 57 59 59 58 58 62 61 59 57 56 55 53 53 51 51 52 55 57 58 56 56 55 54 56 59 57 59 60 59 59 59 56 55 55 58 60 61 63 61 60
58 57 56 56 56 56 56 55 56 55 60 57 56 52 52 52 51 53 50 50 55 57 58 63 60 59 58 59 59 58 59 59 56 54 53 54 57 59 58 59 56 58 53
57 56 57 55 53 51 50 48 52 50 53 56 55 52 52 52 52 49 49 55 53 51 56 63 61 59 57 55 55 54 55 55 54 54 53 55 55 55 55 55 54 53 50
56 57 57 56 53 54 48 51 48 47 46 45 47 51 49 48 46 45 44 44 45 48 58 57 55 55 54 54 52 53 53 53 50 51 50 51 50 50 50 51 52 49 46
56 57 57 55 56 54 53 53 49 51 47 45 45 45 47 47 44 44 45 47 49 54 56 54 52 52 51 51 50 50 49 49 49 48 48 47 47 47 47 46 46 46 45
52 54 52 52 53 55 55 54 51 53 52 51 49 48 46 45 44 44 48 51 53 52 53 51 50 50 48 48 48 48 47 48 48 46 44 44 44 44 43 42 42 41 42
52 52 55 53 56 54 55 54 54 53 53 53 53 52 49 47 46 46 48 52 49 47 48 50 49 48 46 46 44 44 44 44 43 44 42 41 42 41 40 41 41 42 42
52 57 55 52 52 52 52 51 51 53 52 52 52 54 53 52 52 51 50 50 48 46 46 45 44 44 45 44 43 42 42 41 40 40 39 39 39 39 39 39 39 38 38
51 51 57 51 52 53 53 52 52 55 53 52 51 52 49 53 53 51 48 50 49 47 46 46 45 43 42 42 42 41 41 39 39 38 37 37 37 36 37 37 37 37 37
51 51 50 51 51 51 51 51 52 53 55 55 52 51 46 52 53 51 51 52 52 51 51 49 46 46 46 44 42 42 40 38 38 37 36 36 35 35 36 35 39 41 41
51 52 50 50 50 52 51 52 52 52 52 53 53 52 50 51 53 52 53 52 51 50 49 49 47 45 44 44 44 42 39 37 37 37 36 35 34 34 34 39 39 39 40
56 55 54 53 50 50 50 50 50 51 52 51 51 52 51 51 52 53 53 52 52 50 50 49 47 46 44 43 42 41 39 38 37 36 35 34 34 34 34 34 35 39 39
54 55 55 50 54 53 50 52 50 51 52 52 51 51 51 51 50 51 52 52 52 50 49 49 48 47 46 43 42 39 37 35 36 35 34 34 34 33 33 34 35 37 40
52 54 54 54 50 50 52 49 52 52 54 54 53 51 51 50 51 51 50 49 49 49 49 49 48 48 46 45 44 39 34 33 36 35 34 33 32 32 33 34 35 36 40
MSLP
1017.98 1018.27 1018.45 1018.53 1018.63 1018.72 1018.95 1019.27 1019.25 1019.35 1019.34 1019.52 1019.57 1019.77 1020.00 1020.05 1020.10 1020.39 1020.43 1020.47 1020.51 1020.61 1020.61 1020.57 1020.69 1020.75 1020.63 1020.48 1020.47 1020.47 1020.52 1020.50 1021.03 1020.59 1020.15 1019.44 1019.34 1018.95 1018.37 1018.38 1018.04 1018.07 1018.31
1017.71 1017.97 1018.36 1018.43 1018.58 1018.62 1018.58 1018.67 1018.99 1019.26 1019.13 1019.29 1019.55 1019.74 1019.86 1020.07 1020.10 1020.27 1020.48 1020.57 1020.68 1020.65 1020.59 1020.67 1020.45 1020.44 1020.53 1020.40 1020.45 1020.63 1020.64 1020.67 1020.87 1021.08 1020.64 1020.05 1019.82 1019.85 1019.55 1019.04 1018.61 1018.45 1018.47
1017.42 1017.86 1018.18 1018.38 1018.60 1018.70 1018.53 1018.47 1018.61 1018.96 1019.15 1019.24 1019.47 1019.67 1019.90 1020.05 1020.16 1020.25 1020.42 1020.57 1020.61 1020.60 1020.48 1020.36 1020.31 1020.44 1020.39 1020.52 1020.58 1020.57 1020.64 1020.69 1020.80 1020.92 1021.06 1020.60 1020.18 1019.99 1019.63 1019.39 1019.28 1019.06 1018.66
1017.20 1017.59 1017.97 1017.98 1018.10 1018.28 1018.26 1018.36 1018.47 1018.63 1018.92 1019.14 1019.29 1019.53 1019.77 1019.93 1020.18 1020.32 1020.44 1020.53 1020.51 1020.57 1020.51 1020.17 1020.16 1020.25 1020.20 1020.28 1020.50 1020.67 1020.72 1020.88 1021.26 1021.39 1021.33 1021.23 1020.95 1020.45 1020.32 1020.32 1019.97 1019.56 1018.95
1017.18 1017.32 1017.72 1017.74 1017.89 1017.83 1017.83 1017.99 1018.18 1018.49 1018.72 1018.78 1019.10 1019.31 1019.66 1019.95 1020.20 1020.38 1020.50 1020.52 1020.47 1020.51 1020.33 1020.33 1020.36 1020.48 1020.43 1020.29 1020.42 1020.63 1020.80 1021.12 1021.25 1021.36 1021.43 1021.41 1021.25 1021.05 1020.88 1020.69 1020.49 1019.92 1019.27
1016.82 1017.12 1017.54 1017.82 1018.15 1017.75 1017.63 1017.77 1018.02 1018.19 1018.54 1018.86 1018.95 1019.28 1019.79 1020.11 1020.46 1020.45 1020.47 1020.28 1020.00 1020.30 1020.48 1020.57 1020.80 1020.63 1020.67 1020.65 1020.36 1020.37 1020.72 1021.10 1021.24 1021.36 1021.43 1021.47 1021.26 1021.17 1020.98 1020.85 1020.65 1020.42 1019.98
1017.01 1017.33 1017.71 1017.95 1018.52 1018.33 1018.29 1017.92 1018.01 1018.28 1018.44 1018.87 1019.34 1019.62 1020.00 1020.34 1020.48 1020.32 1020.33 1020.29 1020.20 1020.40 1020.68 1020.95 1021.15 1021.19 1020.72 1020.81 1020.86 1021.02 1021.23 1021.28 1021.30 1021.39 1021.50 1021.43 1021.29 1021.02 1020.92 1020.80 1020.70 1020.50 1020.17
1016.94 1017.79 1018.58 1018.83 1018.77 1018.66 1018.58 1018.67 1018.53 1018.51 1018.70 1019.26 1019.73 1020.18 1020.53 1020.75 1020.52 1020.38 1020.27 1020.34 1020.45 1020.85 1021.15 1021.26 1021.25 1021.37 1021.42 1021.20 1021.08 1021.30 1021.58 1021.66 1021.47 1021.18 1021.27 1021.04 1020.88 1020.49 1020.60 1020.49 1020.49 1020.34 1020.04
1018.62 1019.35 1019.09 1018.90 1019.08 1019.36 1019.44 1019.20 1018.65 1018.80 1019.20 1019.84 1020.41 1020.64 1021.03 1020.97 1020.45 1020.10 1020.31 1020.64 1020.97 1021.27 1021.65 1021.54 1021.60 1021.86 1021.76 1021.29 1021.46 1021.87 1022.08 1021.88 1021.28 1021.04 1020.89 1020.79 1020.62 1020.44 1020.62 1020.60 1020.71 1020.62 1020.64
1019.49 1019.72 1019.60 1019.41 1019.59 1019.66 1019.57 1019.68 1019.62 1019.88 1020.26 1020.71 1021.13 1021.44 1021.73 1021.61 1021.10 1020.68 1020.57 1020.92 1021.47 1021.88 1022.05 1022.05 1022.09 1022.29 1022.41 1022.25 1022.16 1022.23 1022.36 1022.46 1021.99 1021.59 1021.34 1021.16 1021.22 1021.26 1021.16 1021.09 1021.04 1021.13 1021.20
1019.56 1019.84 1019.98 1019.95 1019.85 1019.84 1019.82 1020.21 1020.54 1020.84 1021.28 1021.55 1021.74 1021.28 1021.93 1022.29 1022.40 1021.33 1021.14 1021.57 1021.37 1021.86 1022.19 1022.51 1022.76 1022.73 1022.74 1022.71 1022.52 1022.70 1022.65 1022.58 1022.53 1022.50 1022.42 1022.33 1022.17 1022.09 1022.00 1021.86 1021.74 1021.63 1021.61
1020.16 1020.36 1020.38 1020.60 1020.44 1020.35 1020.46 1020.88 1021.39 1021.52 1021.91 1022.49 1022.16 1022.42 1022.90 1023.04 1022.91 1022.75 1022.26 1022.38 1021.82 1021.99 1022.50 1022.70 1022.93 1023.02 1022.88 1022.84 1022.70 1022.87 1022.66 1022.60 1022.77 1023.01 1023.26 1023.50 1023.45 1023.23 1022.95 1022.64 1022.29 1022.29 1022.27
1020.44 1020.90 1021.43 1021.46 1021.39 1021.37 1021.50 1021.68 1021.69 1021.99 1022.51 1022.93 1023.02 1023.04 1023.54 1023.49 1023.37 1023.26 1023.23 1023.22 1022.63 1022.43 1022.39 1022.70 1022.83 1023.02 1023.18 1023.43 1023.61 1023.41 1023.22 1023.37 1023.49 1023.91 1024.39 1024.46 1024.34 1024.21 1023.72 1023.26 1022.95 1022.64 1022.61
1020.56 1021.17 1021.49 1021.59 1021.76 1021.96 1022.19 1022.32 1022.50 1022.65 1023.00 1023.32 1023.63 1023.77 1023.89 1024.08 1023.94 1023.97 1023.69 1023.74 1023.09 1022.87 1022.61 1022.27 1022.79 1023.26 1023.71 1024.17 1024.32 1024.48 1024.33 1024.44 1024.72 1025.02 1025.20 1024.96 1024.59 1024.13 1024.12 1024.14 1024.09 1023.87 1023.67
1021.32 1021.77 1021.73 1022.37 1022.38 1022.80 1023.22 1023.36 1023.39 1023.51 1023.58 1023.56 1023.88 1024.00 1024.27 1024.35 1024.35 1024.33 1024.51 1024.16 1023.84 1023.84 1023.55 1023.21 1023.52 1023.97 1024.59 1025.23 1025.47 1025.53 1025.55 1025.60 1025.54 1025.73 1025.77 1025.48 1025.39 1025.31 1025.28 1025.08 1025.02 1024.89 1025.12
1022.00 1022.23 1022.40 1022.73 1023.10 1023.17 1023.39 1024.30 1024.13 1023.85 1023.58 1023.89 1023.91 1023.75 1024.44 1024.62 1024.65 1024.43 1024.59 1024.21 1024.06 1023.85 1023.97 1024.24 1024.78 1025.08 1025.61 1026.07 1026.26 1026.33 1026.33 1026.35 1026.44 1026.42 1026.43 1026.46 1026.40 1026.37 1026.53 1026.46 1026.41 1026.12 1026.09
1022.43 1022.53 1022.62 1022.59 1023.08 1023.57 1024.09 1023.78 1024.43 1024.44 1024.00 1024.37 1024.45 1024.55 1024.51 1024.75 1024.97 1024.79 1024.25 1024.19 1024.19 1023.80 1024.12 1025.16 1025.82 1026.11 1026.44 1026.73 1026.85 1027.00 1027.20 1027.22 1027.19 1027.33 1027.48 1027.47 1027.46 1027.52 1027.69 1027.54 1027.59 1027.33 1026.95
1022.84 1022.90 1022.93 1023.07 1023.18 1023.60 1023.82 1023.86 1024.41 1024.39 1024.16 1025.02 1024.88 1024.83 1025.19 1025.09 1024.86 1024.64 1024.34 1024.30 1024.95 1025.13 1025.59 1025.93 1026.60 1027.02 1027.20 1027.54 1027.71 1027.71 1027.79 1027.93 1028.00 1028.34 1028.51 1028.55 1028.36 1028.29 1028.45 1028.38 1028.24 1028.06 1027.97
1022.89 1023.04 1023.00 1023.04 1023.17 1023.41 1023.80 1024.47 1024.52 1024.63 1024.75 1024.21 1024.78 1024.88 1025.02 1024.79 1024.81 1025.18 1024.91 1025.15 1025.85 1026.43 1026.60 1026.95 1027.36 1027.43 1027.66 1028.06 1028.31 1028.46 1028.47 1028.55 1028.75 1028.95 1029.02 1029.10 1029.17 1028.87 1028.95 1028.84 1028.78 1028.49 1028.30
1022.73 1022.90 1023.05 1023.18 1023.37 1023.48 1023.64 1023.90 1024.10 1024.56 1024.93 1024.86 1024.77 1024.74 1024.80 1025.08 1025.07 1025.35 1025.69 1026.11 1026.37 1026.89 1027.20 1027.43 1027.76 1027.92 1028.28 1028.60 1028.74 1028.81 1028.89 1029.02 1029.05 1029.30 1029.40 1029.73 1029.60 1029.30 1029.53 1029.35 1029.03 1028.70 1028.65
1022.92 1022.96 1022.83 1023.01 1023.16 1023.14 1023.50 1023.74 1023.82 1024.29 1024.53 1024.68 1024.72 1024.77 1024.85 1024.91 1025.11 1025.69 1025.44 1026.06 1026.28 1026.55 1027.32 1027.80 1028.07 1028.48 1028.35 1028.38 1028.59 1028.92 1029.14 1029.32 1029.36 1029.54 1029.68 1029.98 1029.93 1029.79 1029.85 1029.61 1029.17 1029.11 1028.78
1022.79 1022.85 1022.94 1023.02 1022.99 1023.31 1023.40 1023.43 1023.58 1023.89 1024.07 1024.14 1024.37 1024.31 1024.41 1024.88 1025.06 1025.42 1025.73 1026.16 1026.38 1026.58 1026.88 1027.16 1027.57 1027.75 1027.90 1028.19 1028.35 1028.66 1029.10 1029.32 1029.34 1029.50 1029.88 1029.86 1029.82 1029.83 1029.82 1029.60 1029.08 1029.05 1028.83
1022.51 1022.62 1022.71 1022.87 1022.93 1023.00 1023.22 1023.23 1023.40 1023.58 1023.62 1023.51 1023.81 1024.32 1024.69 1024.59 1024.80 1025.25 1025.64 1025.75 1026.14 1026.42 1026.79 1027.04 1027.40 1027.59 1027.45 1027.55 1027.76 1028.07 1028.66 1029.08 1029.15 1029.20 1029.37 1029.52 1029.65 1029.73 1029.53 1029.41 1029.24 1028.85 1028.50
1021.97 1022.22 1022.42 1022.48 1022.70 1022.90 1022.93 1023.04 1023.12 1022.91 1023.03 1023.27 1023.58 1024.00 1024.41 1024.28 1024.44 1024.79 1024.95 1025.32 1025.69 1025.93 1026.03 1026.35 1026.68 1026.92 1027.09 1027.39 1027.75 1028.01 1028.21 1028.46 1028.72 1028.89 1028.94 1029.17 1029.35 1029.31 1029.31 1029.11 1028.85 1028.77 1028.51
1021.60 1021.79 1021.93 1022.05 1022.30 1022.43 1022.54 1022.76 1022.93 1022.85 1023.00 1023.03 1023.34 1023.61 1023.91 1024.16 1024.44 1024.45 1024.40 1024.55 1025.01 1025.37 1025.64 1025.92 1026.16 1026.37 1026.65 1027.07 1027.24 1027.46 1027.73 1028.07 1028.28 1028.39 1028.61 1028.84 1028.99 1029.04 1029.00 1028.92 1028.76 1028.44 1027.98
1021.38 1021.56 1021.74 1021.74 1022.43 1022.52 1022.44 1022.69 1022.86 1022.87 1023.03 1022.90 1023.05 1023.21 1023.46 1023.42 1023.47 1023.96 1024.21 1024.39 1024.59 1024.78 1025.08 1025.47 1025.78 1026.00 1026.16 1026.30 1026.44 1026.93 1027.38 1027.73 1028.02 1028.12 1028.33 1028.57 1028.67 1028.76 1028.71 1028.54 1028.24 1027.96 1027.73
Wind_Speed
7 6 6 6 6 6 5 5 5 4 4 4 5 6 6 6 5 4 3 2 0 2 1 1 1 1 2 3 3 3 3 3 3 3 1 3 5 6 10 6 4 3 3
4 6 6 6 5 6 6 7 6 6 5 6 5 5 5 4 6 6 5 3 4 4 4 3 4 1 2 2 3 3 2 2 2 2 2 3 4 2 3 4 6 5 3
6 2 5 6 6 7 6 6 6 6 6 6 6 5 5 6 4 4 6 6 5 5 5 6 6 1 3 2 1 2 2 2 3 3 2 2 2 3 4 4 4 3 4
5 3 4 7 8 7 7 6 6 6 6 6 6 7 6 5 4 3 4 4 3 3 1 2 4 1 2 3 3 0 2 2 3 2 1 2 1 3 3 3 5 2 3
6 3 2 5 6 6 7 7 6 6 5 6 6 6 4 4 2 2 3 3 6 4 5 4 6 6 5 4 4 2 1 2 2 2 1 2 1 2 1 2 2 4 3
3 3 1 4 6 6 6 6 6 6 6 5 5 5 5 4 3 1 1 4 6 7 6 5 4 5 6 6 4 4 4 3 0 0 1 1 2 2 1 2 3 3 4
5 5 7 7 5 3 3 2 6 6 5 3 5 5 6 4 2 2 3 3 3 5 6 6 4 3 4 5 7 10 11 10 3 1 1 2 2 1 2 2 2 1 2
9 7 6 3 5 5 3 5 4 2 3 4 5 6 4 2 4 1 3 4 6 6 5 5 6 5 3 3 6 6 6 4 3 2 3 5 5 5 3 2 2 3 2
9 5 2 4 6 5 3 2 2 5 7 7 6 7 5 6 11 2 7 5 7 7 4 5 6 6 6 7 7 6 5 5 5 8 7 3 5 7 1 1 3 3 2
7 5 4 5 5 5 5 6 7 8 8 7 8 8 10 9 14 14 6 6 8 5 5 6 7 7 7 7 6 5 6 3 5 6 7 9 10 10 13 7 3 4 2
6 5 5 5 5 5 7 7 8 9 9 10 8 10 10 10 12 17 15 1 6 6 4 4 3 6 8 7 7 4 2 1 5 6 6 7 8 8 8 7 6 4 4
6 6 6 6 5 5 8 7 7 8 9 4 8 7 5 6 13 14 16 12 8 5 4 3 3 8 9 8 6 7 10 7 5 6 6 6 5 5 6 5 6 5 5
7 7 6 6 7 8 7 5 5 5 5 4 4 5 4 4 5 13 13 10 9 3 2 1 3 10 12 11 14 14 11 7 6 8 6 5 3 4 5 5 7 6 6
8 8 6 7 7 7 5 5 5 4 4 4 3 3 2 2 3 3 3 4 8 6 6 11 13 15 15 10 9 10 8 8 7 6 4 3 4 7 8 7 6 9 5
6 5 7 4 6 7 7 4 4 3 1 3 3 3 2 2 2 2 4 2 2 2 4 7 8 8 8 6 6 6 6 6 7 6 6 6 7 7 7 7 7 6 6
5 4 4 3 3 5 5 4 8 7 9 10 8 4 3 6 3 3 4 4 0 3 5 7 7 7 7 5 5 6 7 9 6 6 7 7 7 7 7 7 7 7 6
3 3 3 4 4 3 1 4 5 4 9 9 9 9 8 4 3 4 8 11 11 8 9 7 7 6 5 5 6 6 6 6 6 7 7 7 6 6 7 6 6 6 6
2 4 3 3 3 2 1 3 1 2 5 2 5 5 6 6 8 7 11 9 7 8 6 7 6 5 5 5 5 5 5 5 6 5 5 5 6 5 5 5 6 6 5
4 3 4 3 4 5 4 1 1 3 0 5 3 3 3 6 10 12 10 7 6 5 5 6 5 5 5 5 4 4 4 5 5 5 6 5 5 5 5 5 5 10 10
3 5 4 4 3 3 4 5 5 3 1 0 1 4 4 2 3 4 4 5 6 5 4 5 4 5 5 4 4 4 4 5 5 5 5 4 4 4 4 4 4 5 5
3 3 3 0 2 2 4 4 6 5 5 5 5 5 5 4 4 3 5 5 6 5 5 5 4 4 4 4 5 4 4 4 4 4 4 3 3 3 3 3 3 4 4
4 3 3 3 2 1 3 2 3 5 7 6 4 4 9 3 5 5 5 5 4 5 6 7 5 5 5 5 4 5 4 4 3 3 2 3 3 3 3 3 4 7 7
4 3 3 3 4 4 2 4 4 5 4 5 5 4 4 4 5 5 6 6 6 6 5 5 5 4 4 5 4 5 5 5 4 4 3 2 2 2 2 3 3 4 6
5 4 5 5 4 4 4 4 3 4 5 5 5 5 5 5 6 8 8 7 7 6 6 6 5 7 5 5 4 4 5 4 4 4 5 4 2 1 2 2 3 6 6
5 4 3 2 3 3 3 3 3 3 4 4 5 5 5 4 3 5 7 7 7 6 7 7 6 9 10 10 9 9 8 11 7 7 4 4 3 2 2 3 4 5 8
5 5 4 4 3 3 4 4 3 2 2 4 4 3 2 3 6 6 5 5 6 6 7 6 7 10 10 9 10 11 10 13 9 8 5 4 3 2 3 3 6 4 7
Wind_Direction
190 190 189 197 203 203 194 183 198 204 178 189 194 191 193 203 183 168 155 172 352 294 342 1 321 147 56 35 57 22 33 53 82 315 308 336 345 20 348 348 7 34 313
192 178 209 207 199 206 213 198 190 186 201 196 202 211 212 216 190 175 186 167 196 249 276 282 272 248 133 108 71 54 28 60 110 64 297 339 32 34 272 28 15 17 330
112 79 226 209 202 214 215 219 199 178 183 200 199 186 192 192 188 214 199 196 205 228 238 227 236 239 168 176 142 106 68 41 54 63 320 316 319 18 351 340 1 353 321
126 124 273 222 203 210 209 210 209 200 189 191 185 182 187 163 137 139 204 217 209 229 244 360 86 282 184 176 143 151 36 44 64 60 354 324 3 329 11 342 346 319 316
161 157 296 287 233 221 198 201 211 202 209 203 195 204 165 134 98 148 214 221 221 132 79 67 55 40 32 149 146 154 111 57 43 39 352 2 322 330 319 298 287 309 316
176 200 187 332 304 226 216 197 196 194 210 200 214 155 132 95 12 355 171 208 211 161 137 116 109 57 35 15 106 140 140 146 111 132 270 256 263 253 311 336 334 353 344
73 37 25 36 351 13 311 211 185 201 168 164 120 115 99 93 13 345 299 206 172 133 143 130 83 25 49 71 81 81 69 53 55 168 227 233 280 171 313 314 304 256 255
85 48 39 47 30 11 43 9 322 251 146 109 99 91 106 16 330 304 210 108 90 85 92 108 117 93 38 93 98 97 68 38 8 329 255 267 253 268 224 226 257 290 309
98 116 84 82 57 38 53 299 41 95 100 98 100 88 75 38 12 339 149 113 96 89 95 94 97 75 20 80 95 95 63 17 347 356 6 22 28 46 160 66 21 51 338
103 102 92 90 101 78 62 62 66 83 90 87 91 74 63 47 22 28 104 124 113 110 92 81 74 99 64 58 84 100 80 16 5 13 22 23 28 30 32 35 27 50 5
75 78 61 57 73 69 84 77 81 83 85 93 88 73 58 37 21 40 33 97 129 118 100 86 58 60 72 68 79 64 81 3 37 55 45 35 32 34 27 24 24 41 34
87 69 68 47 30 57 85 89 83 104 104 77 89 79 56 37 36 30 47 37 55 93 86 69 38 22 40 56 70 74 70 80 67 61 53 38 26 11 3 7 9 40 45
98 93 68 66 61 46 63 61 93 103 110 102 77 75 59 31 29 33 32 31 38 64 67 70 46 64 56 59 46 47 50 49 58 60 47 34 15 347 359 15 15 19 56
101 95 80 80 71 59 58 55 66 56 101 112 99 99 104 85 45 40 61 359 8 26 16 77 79 88 76 59 46 39 47 52 54 54 35 16 12 26 33 18 22 3 37
82 85 91 75 79 82 56 35 91 81 30 128 112 128 90 23 84 27 335 42 67 12 336 71 77 73 67 58 52 48 51 45 47 37 34 36 34 27 27 17 29 25 40
111 104 106 110 112 119 107 79 49 59 66 64 70 109 71 70 0 16 299 342 137 185 74 74 74 73 72 66 64 67 52 52 41 48 44 42 36 30 26 22 23 29 25
112 117 121 114 115 78 14 128 120 39 56 50 63 73 75 137 233 247 105 70 59 81 89 86 76 71 73 63 59 63 60 49 52 50 45 40 32 36 32 26 16 14 12
110 118 117 131 112 87 179 124 126 164 127 91 50 65 31 20 12 88 104 76 62 53 82 85 86 78 69 70 67 68 57 49 59 58 56 42 35 41 33 26 17 8 356
169 189 168 161 159 173 150 104 333 117 208 136 125 37 7 47 47 54 57 91 98 84 83 87 92 88 81 72 65 71 85 76 72 61 50 45 31 32 26 19 18 11 1
230 251 218 200 223 212 178 165 183 181 127 240 175 185 154 54 83 96 83 89 91 86 81 91 89 94 98 95 81 76 72 65 68 66 57 38 23 27 11 359 4 358 344
208 230 205 198 250 216 164 176 188 167 174 197 194 202 187 139 142 149 131 129 128 123 124 126 123 119 114 114 103 93 99 97 86 81 67 48 30 18 346 348 346 336 319
208 207 182 199 191 220 248 232 161 172 189 187 202 210 172 182 161 152 148 149 153 147 155 152 154 158 151 144 136 122 125 127 111 95 80 61 45 18 4 337 4 358 350
203 224 240 235 218 211 266 241 205 204 194 186 179 174 192 182 156 157 168 162 166 167 165 155 154 159 156 151 148 147 150 169 170 150 134 100 55 36 349 358 329 330 339
186 211 235 224 210 204 202 205 226 161 175 189 177 187 211 188 176 176 173 172 178 177 168 161 170 170 168 166 160 164 159 161 166 165 155 155 147 347 307 307 314 322 312
169 151 102 263 195 190 207 218 239 192 168 179 189 183 204 191 208 197 180 182 181 175 179 175 177 186 184 178 179 180 182 173 172 168 161 165 180 256 271 272 279 297 316
183 178 199 143 178 181 136 110 118 58 231 159 187 169 233 229 183 189 197 190 187 185 180 184 189 198 190 190 195 182 178 188 184 179 163 175 192 234 262 282 301 308 304